TimeEDT,TemperatureF,Dew PointF,Humidity,Sea Level PressureIn,VisibilityMPH,Wind Direction,Wind SpeedMPH,Gust SpeedMPH,PrecipitationIn,Events,Conditions,WindDirDegrees,DateUTC
12:10 AM,69.8,69.8,100,30.00,3.0,Calm,Calm,-,0.00,,Mostly Cloudy,0,2013-08-29 04:10:00
12:30 AM,69.8,69.8,100,30.00,3.0,Calm,Calm,-,0.00,,Mostly Cloudy,0,2013-08-29 04:30:00
12:50 AM,69.8,69.8,100,30.00,3.0,NE,3.5,-,0.00,,Scattered Clouds,40,2013-08-29 04:50:00
1:10 AM,69.8,69.8,100,30.00,3.0,North,4.6,-,0.00,,Clear,10,2013-08-29 05:10:00
1:30 AM,68.0,68.0,100,30.00,2.0,Calm,Calm,-,0.00,,Clear,0,2013-08-29 05:30:00
1:50 AM,66.2,66.2,100,30.00,0.5,Calm,Calm,-,0.00,,Unknown,0,2013-08-29 05:50:00
2:10 AM,66.2,66.2,100,30.00,0.2,North,4.6,-,0.00,,Overcast,360,2013-08-29 06:10:00
2:30 AM,69.8,69.8,100,29.99,0.2,NNE,3.5,-,0.00,,Overcast,20,2013-08-29 06:30:00
2:50 AM,69.8,69.8,100,29.99,0.2,North,3.5,-,0.00,,Overcast,360,2013-08-29 06:50:00
3:10 AM,69.8,69.8,100,30.00,0.2,North,3.5,-,0.00,,Overcast,350,2013-08-29 07:10:00
3:30 AM,69.8,-9999,N/A,30.00,0.2,North,4.6,-,0.00,,Overcast,350,2013-08-29 07:30:00
3:50 AM,69.8,-9999,N/A,30.00,0.2,North,3.5,-,0.00,,Overcast,350,2013-08-29 07:50:00
4:10 AM,69.8,-9999,N/A,30.00,0.2,North,4.6,-,0.00,,Overcast,350,2013-08-29 08:10:00
4:30 AM,69.8,-9999,N/A,30.00,0.8,North,5.8,-,0.00,,Overcast,10,2013-08-29 08:30:00
4:50 AM,69.8,-9999,N/A,30.00,2.5,NNW,3.5,-,0.00,,Mostly Cloudy,340,2013-08-29 08:50:00
5:10 AM,66.2,-9999,N/A,30.01,0.2,NW,3.5,-,0.00,,Overcast,320,2013-08-29 09:10:00
5:30 AM,66.2,-9999,N/A,30.01,0.2,Calm,Calm,-,0.00,,Overcast,0,2013-08-29 09:30:00
5:50 AM,68.0,-9999,N/A,30.01,0.2,North,4.6,-,0.00,,Overcast,360,2013-08-29 09:50:00
6:10 AM,68.0,-9999,N/A,30.01,0.2,NNE,3.5,-,0.00,,Overcast,20,2013-08-29 10:10:00
6:30 AM,68.0,-9999,N/A,30.01,0.2,North,6.9,-,0.00,,Overcast,10,2013-08-29 10:30:00
6:50 AM,68.0,-9999,N/A,30.02,1.0,NNE,4.6,-,0.00,,Overcast,20,2013-08-29 10:50:00
7:10 AM,68.0,-9999,N/A,30.03,0.5,North,4.6,-,0.00,,Overcast,360,2013-08-29 11:10:00
7:30 AM,68.0,-9999,N/A,30.04,1.0,North,4.6,-,0.00,,Overcast,10,2013-08-29 11:30:00
7:50 AM,68.0,-9999,N/A,30.04,0.8,North,4.6,-,0.00,,Overcast,360,2013-08-29 11:50:00
8:10 AM,68.0,-9999,N/A,30.05,1.0,NNE,4.6,-,0.00,,Overcast,20,2013-08-29 12:10:00
8:30 AM,68.0,-9999,N/A,30.05,0.8,NNE,3.5,-,0.00,,Overcast,20,2013-08-29 12:30:00
8:50 AM,69.8,-9999,N/A,30.06,1.2,NNE,5.8,-,0.00,,Overcast,30,2013-08-29 12:50:00
9:10 AM,69.8,-9999,N/A,30.06,1.8,NE,4.6,-,0.00,,Overcast,40,2013-08-29 13:10:00
9:30 AM,69.8,-9999,N/A,30.06,2.5,ENE,6.9,-,0.00,,Overcast,60,2013-08-29 13:30:00
9:50 AM,69.8,-9999,N/A,30.06,3.0,NE,6.9,-,0.00,,Overcast,40,2013-08-29 13:50:00
10:10 AM,69.8,-9999,N/A,30.06,3.0,NNE,6.9,-,0.00,,Overcast,20,2013-08-29 14:10:00
10:30 AM,69.8,-9999,N/A,30.07,5.0,NE,8.1,-,0.00,,Overcast,50,2013-08-29 14:30:00
10:50 AM,69.8,-9999,N/A,30.07,5.0,NNE,8.1,-,0.00,,Overcast,30,2013-08-29 14:50:00
11:10 AM,71.6,71.6,100,30.08,5.0,NE,8.1,-,0.00,,Overcast,50,2013-08-29 15:10:00
11:30 AM,71.6,71.6,100,30.08,5.0,NE,6.9,-,0.00,,Overcast,50,2013-08-29 15:30:00
11:50 AM,71.6,71.6,100,30.08,5.0,NE,6.9,-,0.00,,Overcast,50,2013-08-29 15:50:00
12:10 PM,71.6,71.6,100,30.08,6.0,NE,6.9,-,0.00,,Overcast,50,2013-08-29 16:10:00
12:30 PM,71.6,71.6,100,30.08,5.0,NE,5.8,-,0.00,,Overcast,50,2013-08-29 16:30:00
12:50 PM,71.6,71.6,100,30.08,5.0,Calm,Calm,-,0.00,,Overcast,0,2013-08-29 16:50:00
1:10 PM,75.2,69.8,83,30.07,7.0,Calm,Calm,-,0.00,,Mostly Cloudy,0,2013-08-29 17:10:00
1:30 PM,77.0,69.8,78,30.07,9.0,ESE,3.5,-,0.00,,Mostly Cloudy,120,2013-08-29 17:30:00
1:50 PM,75.2,69.8,83,30.07,8.0,Calm,Calm,-,0.00,,Mostly Cloudy,0,2013-08-29 17:50:00
2:10 PM,77.0,69.8,78,30.07,9.0,East,3.5,-,0.00,,Mostly Cloudy,100,2013-08-29 18:10:00
2:30 PM,78.8,66.2,65,30.06,8.0,Calm,Calm,-,0.00,,Mostly Cloudy,0,2013-08-29 18:30:00
2:50 PM,78.8,66.2,65,30.05,9.0,Calm,Calm,-,0.00,,Scattered Clouds,0,2013-08-29 18:50:00
3:10 PM,82.4,66.2,58,30.04,8.0,Calm,Calm,-,0.00,,Scattered Clouds,0,2013-08-29 19:10:00
3:30 PM,78.8,66.2,65,30.04,10.0,NE,3.5,-,0.00,,Overcast,40,2013-08-29 19:30:00
3:50 PM,78.8,66.2,65,30.04,10.0,Calm,Calm,-,0.00,,Scattered Clouds,0,2013-08-29 19:50:00
4:10 PM,82.4,64.4,54,30.04,10.0,Calm,Calm,-,0.00,,Partly Cloudy,0,2013-08-29 20:10:00
4:30 PM,82.4,64.4,54,30.03,10.0,Calm,Calm,-,0.00,,Mostly Cloudy,0,2013-08-29 20:30:00
4:50 PM,82.4,64.4,54,30.03,10.0,East,4.6,-,0.00,,Scattered Clouds,80,2013-08-29 20:50:00
5:10 PM,82.4,64.4,54,30.03,10.0,ENE,3.5,-,0.00,,Clear,60,2013-08-29 21:10:00
5:30 PM,82.4,64.4,54,30.03,10.0,Calm,Calm,-,0.00,,Clear,0,2013-08-29 21:30:00
5:50 PM,82.4,66.2,58,30.03,10.0,East,3.5,-,0.00,,Clear,80,2013-08-29 21:50:00
6:10 PM,82.4,66.2,58,30.03,10.0,Calm,Calm,-,0.00,,Clear,0,2013-08-29 22:10:00
6:30 PM,82.4,66.2,58,30.02,10.0,Calm,Calm,-,0.00,,Clear,0,2013-08-29 22:30:00
6:50 PM,80.6,68.0,65,30.02,10.0,Calm,Calm,-,0.00,,Clear,0,2013-08-29 22:50:00
7:10 PM,80.6,68.0,65,30.02,10.0,Calm,Calm,-,0.00,,Clear,0,2013-08-29 23:10:00
7:30 PM,78.8,68.0,69,30.02,9.0,Calm,Calm,-,0.00,,Clear,0,2013-08-29 23:30:00
7:50 PM,77.0,68.0,74,30.02,9.0,Calm,Calm,-,0.00,,Clear,0,2013-08-29 23:50:00
8:10 PM,73.4,69.8,88,30.02,8.0,Calm,Calm,-,0.00,,Clear,0,2013-08-30 00:10:00
8:30 PM,71.6,69.8,94,30.02,9.0,Calm,Calm,-,0.00,,Clear,0,2013-08-30 00:30:00
8:50 PM,69.8,69.8,100,30.03,8.0,Calm,Calm,-,0.00,,Clear,0,2013-08-30 00:50:00
9:10 PM,69.8,69.8,100,30.03,6.0,Calm,Calm,-,0.00,,Clear,0,2013-08-30 01:10:00
9:30 PM,69.8,69.8,100,30.04,7.0,Calm,Calm,-,0.00,,Clear,0,2013-08-30 01:30:00
9:50 PM,69.8,69.8,100,30.04,5.0,Calm,Calm,-,0.00,,Clear,0,2013-08-30 01:50:00
10:10 PM,69.8,69.8,100,30.04,5.0,Calm,Calm,-,0.00,,Clear,0,2013-08-30 02:10:00
10:30 PM,68.0,68.0,100,30.04,5.0,Calm,Calm,-,0.00,,Clear,0,2013-08-30 02:30:00
10:50 PM,66.2,66.2,100,30.03,5.0,Calm,Calm,-,0.00,,Clear,0,2013-08-30 02:50:00
11:10 PM,69.8,69.8,100,30.03,7.0,East,5.8,-,0.00,,Clear,80,2013-08-30 03:10:00
11:30 PM,71.6,71.6,100,30.02,6.0,East,6.9,-,0.00,,Clear,80,2013-08-30 03:30:00
11:50 PM,71.6,71.6,100,30.02,5.0,East,4.6,-,0.00,,Clear,80,2013-08-30 03:50:00